Home   Weather   Chennai   Past weeks

Flag for India Past Weather in Chennai, Tamil Nadu, India — Yesterday and Last 2 Weeks

Now
90 °F

Scattered clouds.


Feels Like: 103 °F
Forecast: 81 / 94 °F
Wind: 9 mph from Southwest

Location: Madras / Minambakkam

Current Time: Aug 19, 2017 at 6:22:11 pm

Latest Report: Aug 19, 2017 at 6:00 pm


Visibility: 4 mi

Pressure: 29.56 "Hg

Humidity: 67%

Dew Point: 77 °F

Location of ChennaiLocation

Past Weather in Chennai — Graph

°F

Chennai Temperature Yesterday

Maximum temperature yesterday: 93 °F (at 2:30 pm)
Minimum temperature yesterday: 75 °F (at 1:30 am)
Average temperature yesterday: 83 °F

High & Low Weather Summary for the Past Weeks

 TemperatureHumidityPressure
High99 °F (Aug 6, 2:00 pm)100% (Aug 11, 6:30 pm)31.23 "Hg (Aug 11, 6:30 pm)
Low75 °F (Aug 18, 1:30 am)42% (Aug 6, 2:30 pm)29.53 "Hg (Aug 6, 4:00 pm)
Average85 °F76%29.70 "Hg
* Reported Aug 4 4:30 pm — Aug 19 5:00 pm, Chennai. Weather by CustomWeather, © 2017

Note: Actual official high and low records may vary slightly from our data, if they occured in-between our weather recording intervals... More about our weather records

Advertising

Chennai Weather History for the Previous 24 Hours

Scroll right to see more
 ConditionsComfort  
Time TempWeatherWind HumidityBarometerVisibility
5:00 pm
Sat, Aug 19
91 °FBroken clouds.9 mph59%29.56 "Hg4 mi
4:30 pm93 °FScattered clouds.9 mph56%29.56 "Hg4 mi
4:00 pm93 °FScattered clouds.8 mph56%29.56 "Hg4 mi
3:30 pm93 °FScattered clouds.8 mph56%29.56 "Hg4 mi
3:00 pm93 °FScattered clouds.9 mph56%29.56 "Hg5 mi
2:30 pm93 °FScattered clouds.12 mph56%29.56 "Hg5 mi
2:00 pm93 °FScattered clouds.12 mph59%29.59 "Hg5 mi
1:30 pm93 °FScattered clouds.14 mph56%29.59 "Hg5 mi
1:00 pm91 °FScattered clouds.8 mph59%29.59 "Hg5 mi
12:30 pm93 °FScattered clouds.14 mph56%29.62 "Hg5 mi
12:00 pm91 °FScattered clouds.16 mph59%29.65 "Hg5 mi
11:30 am90 °FScattered clouds.16 mph67%29.65 "Hg4 mi
11:00 am90 °FBroken clouds.16 mph63%29.65 "Hg4 mi
10:30 am90 °FBroken clouds.14 mph63%29.65 "Hg4 mi
10:00 am88 °FBroken clouds.12 mph66%29.65 "Hg4 mi
9:30 am88 °FBroken clouds.12 mph70%29.65 "Hg4 mi
9:00 am86 °FBroken clouds.12 mph70%29.65 "Hg3 mi
8:30 am84 °FFog.9 mph79%29.65 "Hg3 mi
8:00 am82 °FFog.9 mph84%29.65 "Hg3 mi
7:30 am81 °FFog.9 mph89%29.62 "Hg3 mi
7:00 am81 °FFog.9 mph89%29.62 "Hg3 mi
6:30 am79 °FFog.7 mph94%29.59 "Hg3 mi
6:00 am79 °FFog.8 mph94%29.59 "Hg3 mi
5:30 am79 °FFog.8 mph94%29.56 "Hg3 mi
5:00 am79 °FFog.8 mph94%29.59 "Hg3 mi
4:30 am79 °FFog.6 mph94%29.59 "Hg3 mi
4:00 am79 °FFog.7 mph94%29.59 "Hg3 mi
3:30 am79 °FPartly cloudy.3 mph94%29.59 "Hg3 mi
3:00 am79 °FLight rain. Partly cloudy.6 mph94%29.59 "Hg3 mi
2:30 am79 °FLight rain. Partly cloudy.3 mph94%29.59 "Hg3 mi
2:00 am79 °FLight rain. Partly cloudy.3 mph94%29.62 "Hg3 mi
1:30 am79 °FLight rain. Partly cloudy.3 mph94%29.62 "Hg3 mi
1:00 am79 °FLight rain. Partly cloudy.5 mph94%29.62 "Hg3 mi
12:30 am79 °FLight rain. Partly cloudy.3 mph94%29.65 "Hg3 mi
12:00 am79 °FLight rain. Partly cloudy.7 mph94%29.65 "Hg3 mi
11:30 pm
Fri, Aug 18
79 °FPartly cloudy.3 mph89%29.65 "Hg3 mi
11:00 pm79 °FPartly cloudy.5 mph89%29.65 "Hg3 mi
10:30 pm79 °FThunderstorms. Partly cloudy.3 mph89%29.68 "Hg2 mi
10:00 pm79 °FThunderstorms. Partly cloudy.8 mph89%29.68 "Hg2 mi
9:30 pm82 °FPartly cloudy.No wind84%29.65 "Hg3 mi
9:00 pm82 °FPartly cloudy.3 mph79%29.62 "Hg4 mi
8:30 pm84 °FPartly cloudy.3 mph79%29.62 "Hg4 mi
8:00 pm86 °FPartly cloudy.8 mph79%29.59 "Hg4 mi
7:30 pm88 °FPartly cloudy.9 mph75%29.59 "Hg4 mi
7:00 pm88 °FPartly cloudy.6 mph75%29.59 "Hg4 mi
6:30 pm90 °FBroken clouds.6 mph67%29.56 "Hg4 mi
6:00 pm90 °FBroken clouds.5 mph67%29.56 "Hg4 mi
Weather by CustomWeather, © 2017

See weather overviewHow to use our weather pages